| time (UTC) | temp C | wind direction | speed KPH | gust KPH | rain 1hr cm | rain 24hr cm | rain mn cm | humidity % | barometer mb |
| 20260506232052 | 7 | 315 | 1.6 | 6.4 | 0.05 | 1.68 | 1.63 | 98 | 1006.6 |
| 20260506231612 | 7 | 0.0 | 1.6 | 0.05 | 1.68 | 1.63 | 98 | 1006.5 | |
| 20260506231129 | 7 | 0.0 | 0.0 | 0.08 | 1.68 | 1.63 | 98 | 1006.5 | |
| 20260506230648 | 7 | 0.0 | 3.2 | 0.05 | 1.65 | 1.60 | 98 | 1006.6 | |
| 20260506230228 | 7 | 0.0 | 0.0 | 0.08 | 1.65 | 1.60 | 98 | 1006.5 | |
| 20260506225505 | 8 | 0.0 | 3.2 | 0.08 | 1.65 | 1.60 | 97 | 1006.4 | |
| 20260506225021 | 8 | 180 | 1.6 | 3.2 | 0.08 | 1.65 | 1.60 | 98 | 1006.5 |
| 20260506224600 | 8 | 0.0 | 1.6 | 0.10 | 1.65 | 1.60 | 98 | 1006.4 | |
| 20260506224102 | 8 | 0.0 | 1.6 | 0.10 | 1.65 | 1.60 | 98 | 1006.4 | |
| 20260506223620 | 8 | 0.0 | 1.6 | 0.10 | 1.65 | 1.60 | 98 | 1006.3 | |
| 20260506223141 | 8 | 0.0 | 3.2 | 0.08 | 1.63 | 1.57 | 98 | 1006.1 | |
| 20260506222749 | 8 | 0.0 | 3.2 | 0.10 | 1.63 | 1.57 | 98 | 1006.1 | |
| 20260506222218 | 8 | 225 | 1.6 | 8.0 | 0.10 | 1.63 | 1.57 | 97 | 1006.1 |
| 20260506221541 | 8 | 0.0 | 3.2 | 0.10 | 1.63 | 1.57 | 98 | 1006.1 | |
| 20260506221033 | 8 | 0.0 | 1.6 | 0.08 | 1.60 | 1.55 | 97 | 1006.0 | |
| 20260506220548 | 8 | 0.0 | 1.6 | 0.10 | 1.60 | 1.55 | 97 | 1005.7 | |
| 20260506220127 | 8 | 0.0 | 3.2 | 0.08 | 1.57 | 1.52 | 97 | 1005.8 | |
| 20260506215652 | 8 | 23 | 1.6 | 4.8 | 0.10 | 1.57 | 1.52 | 97 | 1005.9 |
| 20260506215215 | 8 | 0 | 3.2 | 6.4 | 0.10 | 1.57 | 1.52 | 96 | 1005.9 |
| 20260506214706 | 8 | 0 | 3.2 | 6.4 | 0.08 | 1.55 | 1.50 | 96 | 1005.8 |
| 20260506214008 | 8 | 338 | 6.4 | 14.5 | 0.10 | 1.55 | 1.50 | 96 | 1006.0 |
| 20260506213528 | 8 | 0 | 6.4 | 16.1 | 0.10 | 1.55 | 1.50 | 95 | 1005.9 |
| 20260506213108 | 8 | 0 | 4.8 | 14.5 | 0.10 | 1.55 | 1.50 | 95 | 1005.9 |
| 20260506212559 | 8 | 0 | 6.4 | 14.5 | 0.08 | 1.52 | 1.47 | 95 | 1005.8 |
| 20260506212203 | 9 | 0 | 3.2 | 9.7 | 0.08 | 1.55 | 1.47 | 95 | 1005.8 |
| 20260506211706 | 9 | 23 | 1.6 | 6.4 | 0.08 | 1.57 | 1.47 | 95 | 1005.7 |
| 20260506211154 | 10 | 338 | 4.8 | 12.9 | 0.08 | 1.60 | 1.47 | 96 | 1005.5 |
| 20260506210716 | 10 | 0 | 4.8 | 8.0 | 0.05 | 1.57 | 1.45 | 96 | 1005.4 |
| 20260506210011 | 10 | 293 | 4.8 | 8.0 | 0.05 | 1.57 | 1.45 | 97 | 1005.6 |
| 20260506205531 | 10 | 0.0 | 3.2 | 0.03 | 1.57 | 1.42 | 98 | 1005.5 | |
| 20260506205055 | 10 | 0.0 | 0.0 | 0.03 | 1.57 | 1.42 | 98 | 1005.3 | |
| 20260506204610 | 10 | 0.0 | 3.2 | 0.03 | 1.60 | 1.42 | 97 | 1005.3 | |
| 20260506204126 | 10 | 0.0 | 1.6 | 0.00 | 1.60 | 1.40 | 97 | 1005.4 | |
| 20260506203645 | 11 | 0.0 | 1.6 | 0.00 | 1.60 | 1.40 | 97 | 1005.3 | |
| 20260506203208 | 11 | 0.0 | 3.2 | 0.00 | 1.60 | 1.40 | 97 | 1005.1 | |
| 20260506202509 | 11 | 0.0 | 1.6 | 0.00 | 1.60 | 1.40 | 97 | 1005.3 | |
| 20260506202018 | 11 | 0.0 | 1.6 | 0.00 | 1.60 | 1.40 | 97 | 1005.2 | |
| 20260506201540 | 11 | 0.0 | 3.2 | 0.03 | 1.60 | 1.40 | 97 | 1005.2 | |
| 20260506201055 | 11 | 0.0 | 1.6 | 0.03 | 1.60 | 1.40 | 98 | 1005.4 | |
| 20260506200623 | 11 | 0.0 | 1.6 | 0.03 | 1.60 | 1.40 | 98 | 1005.4 | |
| 20260506200133 | 11 | 0.0 | 3.2 | 0.03 | 1.60 | 1.40 | 98 | 1005.5 | |
| 20260506195700 | 11 | 0.0 | 0.0 | 0.05 | 1.60 | 1.40 | 98 | 1005.5 | |
| 20260506195215 | 11 | 0.0 | 0.0 | 0.05 | 1.60 | 1.40 | 98 | 1005.6 | |
| 20260506194512 | 11 | 0.0 | 1.6 | 0.08 | 1.60 | 1.40 | 98 | 1005.7 | |
| 20260506194026 | 11 | 0.0 | 0.0 | 0.08 | 1.60 | 1.40 | 99 | 1005.5 | |
| 20260506193551 | 11 | 0.0 | 0.0 | 0.10 | 1.60 | 1.40 | 99 | 1005.6 | |
| 20260506193111 | 11 | 0.0 | 1.6 | 0.10 | 1.60 | 1.40 | 99 | 1005.7 | |
| 20260506192627 | 10 | 0.0 | 1.6 | 0.13 | 1.60 | 1.40 | 98 | 1005.6 | |
| 20260506192146 | 10 | 0.0 | 0.0 | 0.15 | 1.60 | 1.40 | 98 | 1005.6 | |
| 20260506191706 | 10 | 0.0 | 1.6 | 0.15 | 1.57 | 1.37 | 98 | 1005.7 | |
| 20260506191221 | 10 | 23 | 1.6 | 3.2 | 0.18 | 1.57 | 1.37 | 97 | 1005.7 |
| 20260506190525 | 10 | 23 | 1.6 | 3.2 | 0.18 | 1.57 | 1.37 | 97 | 1005.7 |
| 20260506190036 | 10 | 0.0 | 3.2 | 0.20 | 1.57 | 1.37 | 98 | 1005.6 | |
| 20260506185601 | 11 | 0.0 | 1.6 | 0.20 | 1.55 | 1.35 | 98 | 1005.5 | |
| 20260506185135 | 10 | 0.0 | 1.6 | 0.20 | 1.55 | 1.35 | 98 | 1005.7 | |
| 20260506184637 | 10 | 90 | 1.6 | 4.8 | 0.20 | 1.52 | 1.32 | 97 | 1005.7 |
| 20260506184218 | 11 | 0 | 1.6 | 4.8 | 0.23 | 1.52 | 1.32 | 97 | 1006.0 |
| 20260506183709 | 11 | 68 | 1.6 | 3.2 | 0.20 | 1.50 | 1.30 | 97 | 1006.0 |
| 20260506183009 | 11 | 90 | 1.6 | 3.2 | 0.23 | 1.50 | 1.30 | 97 | 1006.0 |
| 20260506182529 | 11 | 0 | 4.8 | 9.7 | 0.23 | 1.47 | 1.27 | 97 | 1006.2 |
| 20260506182108 | 11 | 0 | 6.4 | 19.3 | 0.20 | 1.45 | 1.24 | 97 | 1006.4 |
| 20260506181532 | 12 | 315 | 1.6 | 12.9 | 0.20 | 1.42 | 1.22 | 99 | 1006.4 |
| 20260506181047 | 12 | 0.0 | 3.2 | 0.18 | 1.40 | 1.19 | 100 | 1006.3 | |
| 20260506180607 | 12 | 0.0 | 1.6 | 0.20 | 1.40 | 1.19 | 100 | 1006.3 | |
| 20260506180129 | 12 | 0.0 | 3.2 | 0.18 | 1.37 | 1.17 | 99 | 1006.3 | |
| 20260506175646 | 11 | 0.0 | 1.6 | 0.18 | 1.35 | 1.14 | 99 | 1006.5 | |
| 20260506175203 | 11 | 338 | 3.2 | 6.4 | 0.18 | 1.35 | 1.14 | 99 | 1006.5 |
| 20260506174715 | 11 | 0.0 | 6.4 | 0.18 | 1.32 | 1.12 | 99 | 1006.4 | |
| 20260506174015 | 11 | 0.0 | 0.0 | 0.15 | 1.30 | 1.09 | 99 | 1006.4 | |
| 20260506173602 | 11 | 0.0 | 0.0 | 0.18 | 1.30 | 1.09 | 99 | 1006.3 | |
| 20260506173057 | 11 | 0.0 | 0.0 | 0.15 | 1.27 | 1.07 | 99 | 1006.4 | |
| 20260506172616 | 11 | 0.0 | 0.0 | 0.15 | 1.24 | 1.04 | 99 | 1006.4 | |
| 20260506172130 | 11 | 0.0 | 0.0 | 0.15 | 1.24 | 1.04 | 99 | 1006.3 | |
| 20260506171648 | 11 | 0.0 | 0.0 | 0.13 | 1.22 | 1.02 | 99 | 1006.3 | |
| 20260506171234 | 11 | 0.0 | 0.0 | 0.15 | 1.22 | 1.02 | 99 | 1006.2 | |
| 20260506170508 | 11 | 0.0 | 0.0 | 0.13 | 1.19 | 0.99 | 98 | 1006.2 | |
| 20260506170025 | 11 | 0.0 | 0.0 | 0.13 | 1.19 | 0.99 | 98 | 1006.5 | |
| 20260506165543 | 11 | 0.0 | 0.0 | 0.13 | 1.17 | 0.97 | 99 | 1006.5 | |
| 20260506165100 | 11 | 0.0 | 1.6 | 0.13 | 1.17 | 0.97 | 98 | 1006.5 | |
| 20260506164630 | 11 | 0.0 | 1.6 | 0.13 | 1.14 | 0.94 | 98 | 1006.6 | |
| 20260506164136 | 11 | 0.0 | 0.0 | 0.13 | 1.14 | 0.94 | 98 | 1006.8 | |
| 20260506163705 | 11 | 0.0 | 0.0 | 0.13 | 1.12 | 0.91 | 99 | 1006.6 | |
| 20260506163213 | 11 | 0.0 | 1.6 | 0.15 | 1.12 | 0.91 | 98 | 1007.0 | |
| 20260506162510 | 11 | 0.0 | 0.0 | 0.13 | 1.09 | 0.89 | 98 | 1007.1 | |
| 20260506162052 | 11 | 0.0 | 1.6 | 0.15 | 1.09 | 0.89 | 99 | 1007.0 | |
| 20260506161552 | 11 | 90 | 1.6 | 3.2 | 0.15 | 1.09 | 0.89 | 99 | 1007.1 |
| 20260506161105 | 11 | 0.0 | 3.2 | 0.15 | 1.07 | 0.86 | 99 | 1007.3 | |
| 20260506160621 | 11 | 0.0 | 3.2 | 0.15 | 1.07 | 0.86 | 99 | 1007.3 | |
| 20260506160144 | 11 | 0.0 | 1.6 | 0.18 | 1.07 | 0.86 | 99 | 1007.3 | |
| 20260506155750 | 11 | 0.0 | 3.2 | 0.18 | 1.04 | 0.84 | 99 | 1007.7 | |
| 20260506154513 | 11 | 90 | 1.6 | 3.2 | 0.18 | 1.02 | 0.81 | 99 | 1007.6 |
| 20260506154036 | 11 | 0.0 | 3.2 | 0.18 | 1.02 | 0.81 | 99 | 1007.8 | |
| 20260506153556 | 11 | 0.0 | 1.6 | 0.18 | 0.99 | 0.79 | 99 | 1007.8 | |
| 20260506153108 | 11 | 0.0 | 0.0 | 0.15 | 0.97 | 0.76 | 98 | 1007.7 | |
| 20260506152643 | 11 | 0.0 | 0.0 | 0.18 | 0.97 | 0.76 | 98 | 1007.7 | |
| 20260506152146 | 11 | 0.0 | 0.0 | 0.15 | 0.94 | 0.74 | 99 | 1007.8 | |
| 20260506151705 | 11 | 0.0 | 0.0 | 0.15 | 0.94 | 0.74 | 99 | 1008.0 | |
| 20260506151219 | 11 | 0.0 | 0.0 | 0.13 | 0.91 | 0.71 | 99 | 1007.9 | |
| 20260506150810 | 11 | 0.0 | 0.0 | 0.13 | 0.91 | 0.71 | 99 | 1008.0 | |
| 20260506150033 | 11 | 0.0 | 0.0 | 0.13 | 0.89 | 0.69 | 99 | 1008.0 | |
| 20260506145618 | 11 | 0.0 | 0.0 | 0.10 | 0.86 | 0.66 | 99 | 1008.1 | |
| 20260506145115 | 11 | 0.0 | 0.0 | 0.10 | 0.86 | 0.66 | 99 | 1008.1 | |
| 20260506144629 | 11 | 0.0 | 0.0 | 0.10 | 0.84 | 0.64 | 99 | 1008.1 | |
| 20260506144153 | 11 | 0.0 | 0.0 | 0.10 | 0.84 | 0.64 | 99 | 1008.0 | |
| 20260506143712 | 11 | 0.0 | 0.0 | 0.10 | 0.81 | 0.61 | 99 | 1008.1 | |
| 20260506143011 | 11 | 0.0 | 0.0 | 0.13 | 0.81 | 0.61 | 98 | 1008.3 | |
| 20260506142528 | 11 | 0.0 | 0.0 | 0.13 | 0.79 | 0.58 | 98 | 1008.1 | |
| 20260506142046 | 11 | 0.0 | 0.0 | 0.13 | 0.79 | 0.58 | 99 | 1008.1 | |
| 20260506141625 | 11 | 0.0 | 0.0 | 0.13 | 0.79 | 0.58 | 99 | 1008.1 | |
| 20260506141126 | 11 | 0.0 | 0.0 | 0.13 | 0.79 | 0.58 | 99 | 1007.9 | |
| 20260506140723 | 11 | 0.0 | 3.2 | 0.15 | 0.79 | 0.58 | 99 | 1007.8 | |
| 20260506140155 | 11 | 0.0 | 1.6 | 0.13 | 0.76 | 0.56 | 99 | 1007.8 | |
| 20260506135737 | 11 | 0.0 | 1.6 | 0.13 | 0.76 | 0.56 | 99 | 1007.9 | |
| 20260506135036 | 11 | 0.0 | 3.2 | 0.15 | 0.76 | 0.56 | 99 | 1007.8 | |
| 20260506134534 | 11 | 0.0 | 1.6 | 0.13 | 0.74 | 0.53 | 99 | 1008.0 | |
| 20260506134049 | 11 | 0.0 | 0.0 | 0.13 | 0.74 | 0.53 | 99 | 1008.0 | |
| 20260506133613 | 11 | 0.0 | 0.0 | 0.10 | 0.71 | 0.51 | 99 | 1008.3 | |
| 20260506133124 | 11 | 0.0 | 0.0 | 0.08 | 0.69 | 0.48 | 99 | 1008.5 | |
| 20260506132720 | 11 | 0.0 | 1.6 | 0.05 | 0.66 | 0.46 | 99 | 1008.6 | |
| 20260506131506 | 11 | 0.0 | 1.6 | 0.05 | 0.66 | 0.46 | 99 | 1008.5 | |
| 20260506131025 | 11 | 0.0 | 3.2 | 0.05 | 0.66 | 0.46 | 100 | 1008.4 | |
| 20260506130544 | 11 | 0.0 | 1.6 | 0.03 | 0.64 | 0.43 | 99 | 1008.5 | |
| 20260506130056 | 11 | 0.0 | 1.6 | 0.03 | 0.64 | 0.43 | 99 | 1008.5 | |
| 20260506125617 | 10 | 0.0 | 1.6 | 0.03 | 0.64 | 0.43 | 99 | 1008.5 | |
| 20260506125204 | 10 | 0.0 | 1.6 | 0.00 | 0.61 | 0.41 | 99 | 1008.4 | |
| 20260506124658 | 10 | 113 | 1.6 | 1.6 | 0.00 | 0.61 | 0.41 | 99 | 1008.4 |
| 20260506124210 | 10 | 0.0 | 1.6 | 0.00 | 0.61 | 0.41 | 99 | 1008.4 | |
| 20260506123506 | 10 | 113 | 1.6 | 1.6 | 0.00 | 0.61 | 0.41 | 99 | 1008.6 |
| 20260506123049 | 10 | 0.0 | 1.6 | 0.00 | 0.61 | 0.41 | 99 | 1008.8 | |
| 20260506122513 | 10 | 0.0 | 3.2 | 0.00 | 0.61 | 0.41 | 99 | 1008.6 | |
| 20260506122034 | 10 | 0.0 | 1.6 | 0.00 | 0.61 | 0.41 | 99 | 1008.6 | |
| 20260506121550 | 11 | 0.0 | 1.6 | 0.00 | 0.61 | 0.41 | 99 | 1008.6 | |
| 20260506121137 | 10 | 0.0 | 1.6 | 0.00 | 0.61 | 0.41 | 99 | 1008.4 | |
| 20260506120645 | 10 | 0.0 | 0.0 | 0.00 | 0.61 | 0.41 | 99 | 1008.5 | |
| 20260506120147 | 10 | 0.0 | 1.6 | 0.00 | 0.61 | 0.41 | 99 | 1008.6 | |
| 20260506115703 | 11 | 0.0 | 1.6 | 0.00 | 0.61 | 0.41 | 99 | 1008.5 | |
| 20260506115322 | 11 | 0.0 | 1.6 | 0.00 | 0.61 | 0.41 | 99 | 1008.6 | |
| 20260506114516 | 11 | 0.0 | 1.6 | 0.00 | 0.61 | 0.41 | 99 | 1008.7 | |
| 20260506114036 | 11 | 0.0 | 3.2 | 0.00 | 0.61 | 0.41 | 99 | 1008.6 | |
| 20260506113613 | 11 | 158 | 1.6 | 6.4 | 0.00 | 0.61 | 0.41 | 99 | 1008.6 |
| 20260506113114 | 11 | 0.0 | 1.6 | 0.00 | 0.61 | 0.41 | 99 | 1008.7 | |
| 20260506112632 | 11 | 0.0 | 0.0 | 0.00 | 0.61 | 0.41 | 99 | 1008.8 | |
| 20260506112151 | 11 | 315 | 1.6 | 4.8 | 0.00 | 0.61 | 0.41 | 99 | 1008.8 |
| 20260506111715 | 11 | 315 | 1.6 | 4.8 | 0.00 | 0.61 | 0.41 | 99 | 1008.9 |
| 20260506111009 | 11 | 0.0 | 0.0 | 0.00 | 0.61 | 0.41 | 99 | 1008.8 | |
| 20260506110522 | 11 | 0.0 | 0.0 | 0.00 | 0.61 | 0.41 | 99 | 1008.7 | |
| 20260506110100 | 10 | 0.0 | 0.0 | 0.00 | 0.61 | 0.41 | 99 | 1008.9 | |
| 20260506105642 | 10 | 0.0 | 1.6 | 0.00 | 0.61 | 0.41 | 99 | 1009.1 | |
| 20260506105115 | 10 | 0.0 | 1.6 | 0.00 | 0.61 | 0.41 | 99 | 1009.2 | |
| 20260506104636 | 10 | 0.0 | 3.2 | 0.00 | 0.61 | 0.41 | 99 | 1009.1 | |
| 20260506104150 | 10 | 0.0 | 0.0 | 0.00 | 0.61 | 0.41 | 99 | 1008.9 | |
| 20260506103715 | 10 | 0.0 | 0.0 | 0.00 | 0.61 | 0.41 | 99 | 1008.9 | |
| 20260506103010 | 10 | 0.0 | 1.6 | 0.00 | 0.61 | 0.41 | 99 | 1009.1 | |
| 20260506102523 | 10 | 315 | 1.6 | 4.8 | 0.00 | 0.61 | 0.41 | 99 | 1009.2 |
| 20260506102047 | 10 | 315 | 1.6 | 3.2 | 0.00 | 0.61 | 0.41 | 99 | 1009.0 |
| 20260506101606 | 10 | 0.0 | 1.6 | 0.00 | 0.61 | 0.41 | 99 | 1009.0 | |
| 20260506101127 | 10 | 0.0 | 1.6 | 0.00 | 0.61 | 0.41 | 99 | 1008.8 | |
| 20260506100701 | 10 | 0.0 | 0.0 | 0.00 | 0.61 | 0.41 | 99 | 1009.0 | |
| 20260506100038 | 10 | 0.0 | 0.0 | 0.00 | 0.61 | 0.41 | 99 | 1009.4 | |
| 20260506095017 | 10 | 0.0 | 0.0 | 0.00 | 0.61 | 0.41 | 99 | 1009.3 | |
| 20260506094534 | 10 | 0.0 | 0.0 | 0.00 | 0.61 | 0.41 | 99 | 1009.3 | |
| 20260506094054 | 10 | 0.0 | 1.6 | 0.00 | 0.61 | 0.41 | 99 | 1009.3 | |
| 20260506093614 | 10 | 0.0 | 3.2 | 0.00 | 0.61 | 0.41 | 99 | 1009.4 | |
| 20260506093056 | 10 | 0.0 | 0.0 | 0.00 | 0.61 | 0.41 | 99 | 1009.5 | |
| 20260506092606 | 10 | 0.0 | 0.0 | 0.00 | 0.61 | 0.41 | 98 | 1009.7 | |
| 20260506092132 | 10 | 0.0 | 0.0 | 0.00 | 0.61 | 0.41 | 98 | 1009.5 | |
| 20260506091715 | 10 | 0.0 | 0.0 | 0.00 | 0.61 | 0.41 | 98 | 1009.5 | |
| 20260506091241 | 10 | 0.0 | 1.6 | 0.00 | 0.61 | 0.41 | 99 | 1009.7 | |
| 20260506090504 | 10 | 315 | 1.6 | 4.8 | 0.00 | 0.61 | 0.41 | 98 | 1009.9 |
| 20260506090042 | 10 | 0.0 | 4.8 | 0.00 | 0.61 | 0.41 | 99 | 1010.0 | |
| 20260506085543 | 10 | 0.0 | 0.0 | 0.00 | 0.61 | 0.41 | 98 | 1009.7 | |
| 20260506085103 | 10 | 0.0 | 0.0 | 0.00 | 0.61 | 0.41 | 98 | 1009.5 | |
| 20260506084616 | 10 | 0.0 | 0.0 | 0.00 | 0.61 | 0.41 | 98 | 1009.7 | |
| 20260506084136 | 10 | 0.0 | 0.0 | 0.03 | 0.61 | 0.41 | 98 | 1009.9 | |
| 20260506083651 | 10 | 0.0 | 1.6 | 0.05 | 0.61 | 0.41 | 98 | 1009.9 | |
| 20260506083228 | 10 | 0.0 | 1.6 | 0.08 | 0.61 | 0.41 | 98 | 1010.0 | |
| 20260506082509 | 11 | 0.0 | 3.2 | 0.08 | 0.61 | 0.41 | 98 | 1010.1 | |
| 20260506082048 | 11 | 315 | 1.6 | 4.8 | 0.08 | 0.61 | 0.41 | 98 | 1010.3 |
| 20260506081542 | 11 | 315 | 1.6 | 4.8 | 0.08 | 0.61 | 0.41 | 98 | 1010.5 |
| 20260506081058 | 11 | 0.0 | 3.2 | 0.08 | 0.61 | 0.41 | 98 | 1010.0 | |
| 20260506080623 | 11 | 0.0 | 1.6 | 0.08 | 0.61 | 0.41 | 98 | 1010.3 | |
| 20260506080136 | 11 | 315 | 1.6 | 3.2 | 0.08 | 0.61 | 0.41 | 98 | 1010.2 |
| 20260506073111 | 11 | 0.0 | 3.2 | 0.03 | 0.53 | 0.33 | 97 | 1010.6 | |
| 20260506072627 | 11 | 0.0 | 0.0 | 0.05 | 0.53 | 0.33 | 97 | 1010.3 | |
| 20260506072140 | 11 | 0.0 | 0.0 | 0.08 | 0.53 | 0.33 | 97 | 1010.5 | |
| 20260506071702 | 11 | 0.0 | 0.0 | 0.08 | 0.53 | 0.33 | 96 | 1010.6 | |
| 20260506071228 | 11 | 0.0 | 3.2 | 0.10 | 0.53 | 0.33 | 96 | 1010.5 | |
| 20260506070521 | 11 | 0.0 | 3.2 | 0.15 | 0.53 | 0.33 | 96 | 1010.7 | |
| 20260506062046 | 11 | 315 | 1.6 | 4.8 | 0.13 | 0.46 | 0.25 | 91 | 1010.3 |
| 20260506061601 | 12 | 338 | 4.8 | 12.9 | 0.13 | 0.46 | 0.25 | 91 | 1010.1 |
| 20260506061119 | 11 | 315 | 9.7 | 16.1 | 0.10 | 0.43 | 0.23 | 91 | 1010.5 |
| 20260506060644 | 11 | 315 | 6.4 | 9.7 | 0.05 | 0.38 | 0.18 | 92 | 1010.7 |
| 20260506060202 | 12 | 315 | 4.8 | 9.7 | 0.05 | 0.38 | 0.18 | 91 | 1010.4 |
| 20260506051104 | 11 | 338 | 11.3 | 17.7 | 0.13 | 0.33 | 0.13 | 92 | 1010.2 |
| 20260506050544 | 11 | 338 | 9.7 | 22.5 | 0.13 | 0.33 | 0.13 | 92 | 1010.3 |
| 20260506044651 | 12 | 315 | 12.9 | 20.9 | 0.03 | 0.23 | 0.03 | 92 | 1010.4 |
| 20260506044222 | 12 | 315 | 6.4 | 22.5 | 0.03 | 0.23 | 0.03 | 92 | 1010.1 |
| 20260506043519 | 13 | 338 | 12.9 | 22.5 | 0.03 | 0.23 | 0.03 | 91 | 1010.0 |
| 20260506043038 | 13 | 338 | 11.3 | 19.3 | 0.05 | 0.23 | 0.03 | 92 | 1009.9 |
| 20260506042851 | 12 | 315 | 8.0 | 17.7 | 0.05 | 0.20 | 0.00 | 98 | 1009.4 |
| 20260506040251 | 11 | 0.0 | 0.0 | 0.05 | 0.20 | 0.00 | 98 | 1008.8 | |
| 20260506035546 | 11 | 0.0 | 0.0 | 0.05 | 0.20 | 0.20 | 98 | 1008.9 | |
| 20260506035043 | 11 | 0.0 | 0.0 | 0.05 | 0.20 | 0.20 | 99 | 1008.6 | |
| 20260506034557 | 11 | 0.0 | 0.0 | 0.05 | 0.20 | 0.20 | 98 | 1008.5 | |
| 20260506034118 | 11 | 0.0 | 0.0 | 0.05 | 0.20 | 0.20 | 99 | 1008.7 | |
| 20260506033639 | 11 | 0.0 | 0.0 | 0.05 | 0.20 | 0.20 | 99 | 1008.8 | |
| 20260506033220 | 11 | 0.0 | 0.0 | 0.03 | 0.18 | 0.18 | 98 | 1009.1 | |
| 20260506032715 | 11 | 0.0 | 0.0 | 0.00 | 0.15 | 0.15 | 98 | 1009.2 | |
| 20260506032039 | 11 | 0.0 | 0.0 | 0.00 | 0.15 | 0.15 | 98 | 1008.9 | |
| 20260506031532 | 11 | 0.0 | 0.0 | 0.00 | 0.15 | 0.15 | 98 | 1008.6 | |
| 20260506031046 | 11 | 0.0 | 0.0 | 0.00 | 0.15 | 0.15 | 98 | 1008.5 | |
| 20260506030607 | 11 | 0.0 | 0.0 | 0.00 | 0.15 | 0.15 | 98 | 1008.5 | |
| 20260506030125 | 11 | 0.0 | 0.0 | 0.00 | 0.15 | 0.15 | 98 | 1008.7 | |
| 20260506025648 | 11 | 0.0 | 0.0 | 0.00 | 0.15 | 0.15 | 98 | 1008.6 | |
| 20260506025204 | 11 | 0.0 | 0.0 | 0.00 | 0.15 | 0.15 | 98 | 1008.5 | |
| 20260506024518 | 11 | 0.0 | 1.6 | 0.00 | 0.15 | 0.15 | 97 | 1008.5 | |
| 20260506024014 | 11 | 0.0 | 1.6 | 0.00 | 0.15 | 0.15 | 97 | 1008.5 | |
| 20260506023531 | 11 | 0.0 | 3.2 | 0.00 | 0.15 | 0.15 | 98 | 1008.4 | |
| 20260506023054 | 11 | 135 | 1.6 | 3.2 | 0.00 | 0.15 | 0.15 | 97 | 1008.4 |
| 20260506022612 | 12 | 0.0 | 0.0 | 0.00 | 0.15 | 0.15 | 97 | 1008.5 | |
| 20260506022129 | 12 | 0.0 | 0.0 | 0.00 | 0.15 | 0.15 | 97 | 1008.3 | |
| 20260506021650 | 12 | 0.0 | 1.6 | 0.00 | 0.15 | 0.15 | 97 | 1008.2 | |
| 20260506021212 | 12 | 0.0 | 0.0 | 0.00 | 0.15 | 0.15 | 97 | 1008.3 | |
| 20260506020726 | 12 | 0.0 | 1.6 | 0.00 | 0.15 | 0.15 | 97 | 1008.4 | |
| 20260506020025 | 12 | 0.0 | 0.0 | 0.00 | 0.15 | 0.15 | 97 | 1008.5 | |
| 20260506015616 | 12 | 0.0 | 0.0 | 0.00 | 0.15 | 0.15 | 97 | 1008.5 | |
| 20260506015053 | 12 | 0.0 | 1.6 | 0.00 | 0.15 | 0.15 | 97 | 1008.3 | |
| 20260506014613 | 12 | 0.0 | 0.0 | 0.00 | 0.15 | 0.15 | 97 | 1008.3 | |
| 20260506014130 | 12 | 0.0 | 1.6 | 0.00 | 0.15 | 0.15 | 97 | 1008.2 | |
| 20260506013654 | 12 | 135 | 1.6 | 3.2 | 0.00 | 0.15 | 0.15 | 96 | 1008.2 |
| 20260506013259 | 13 | 135 | 1.6 | 3.2 | 0.00 | 0.15 | 0.15 | 97 | 1008.1 |
| 20260506012521 | 13 | 0.0 | 1.6 | 0.00 | 0.15 | 0.15 | 97 | 1008.3 | |
| 20260506012029 | 13 | 135 | 1.6 | 3.2 | 0.00 | 0.15 | 0.15 | 97 | 1008.4 |
| 20260506011548 | 13 | 135 | 1.6 | 3.2 | 0.00 | 0.15 | 0.15 | 97 | 1008.2 |
| 20260506011102 | 13 | 135 | 1.6 | 3.2 | 0.00 | 0.15 | 0.15 | 97 | 1008.3 |
| 20260506010620 | 13 | 135 | 1.6 | 3.2 | 0.00 | 0.15 | 0.15 | 96 | 1008.4 |
| 20260506010142 | 13 | 135 | 1.6 | 3.2 | 0.00 | 0.15 | 0.15 | 96 | 1008.1 |
| 20260506005740 | 13 | 158 | 1.6 | 6.4 | 0.00 | 0.15 | 0.15 | 97 | 1008.3 |
| 20260506005001 | 13 | 180 | 1.6 | 3.2 | 0.00 | 0.15 | 0.15 | 97 | 1008.3 |
| 20260506004514 | 13 | 180 | 1.6 | 3.2 | 0.00 | 0.15 | 0.15 | 97 | 1008.0 |
| 20260506004035 | 13 | 180 | 1.6 | 3.2 | 0.00 | 0.15 | 0.15 | 96 | 1007.8 |
| 20260506003557 | 13 | 180 | 1.6 | 3.2 | 0.00 | 0.15 | 0.15 | 96 | 1007.8 |
| 20260506003116 | 13 | 180 | 1.6 | 3.2 | 0.00 | 0.15 | 0.15 | 96 | 1007.8 |
| 20260506002630 | 13 | 0.0 | 3.2 | 0.00 | 0.15 | 0.15 | 95 | 1007.8 | |
| 20260506002149 | 13 | 158 | 1.6 | 3.2 | 0.00 | 0.15 | 0.15 | 95 | 1007.7 |
| 20260506001707 | 13 | 158 | 1.6 | 3.2 | 0.00 | 0.15 | 0.15 | 95 | 1007.7 |
| 20260506001008 | 13 | 0.0 | 1.6 | 0.00 | 0.15 | 0.15 | 95 | 1007.5 | |
| 20260506000524 | 13 | 0.0 | 4.8 | 0.00 | 0.15 | 0.15 | 95 | 1007.3 | |
| 20260506000041 | 13 | 135 | 1.6 | 4.8 | 0.00 | 0.15 | 0.15 | 95 | 1007.3 |
| 20260505235559 | 13 | 203 | 1.6 | 4.8 | 0.00 | 0.15 | 0.15 | 95 | 1007.3 |
| 20260505235120 | 13 | 203 | 1.6 | 3.2 | 0.00 | 0.15 | 0.15 | 94 | 1007.1 |
| 20260505234640 | 14 | 158 | 1.6 | 4.8 | 0.00 | 0.15 | 0.15 | 94 | 1007.1 |
| 20260505233714 | 14 | 158 | 1.6 | 4.8 | 0.00 | 0.15 | 0.15 | 93 | 1006.9 |
| 20260505233006 | 14 | 0.0 | 3.2 | 0.00 | 0.15 | 0.15 | 93 | 1007.0 | |
| 20260505232527 | 14 | 225 | 1.6 | 4.8 | 0.00 | 0.15 | 0.15 | 92 | 1007.3 |